Location: Unspecified
(0.0000°N, 0.0000°E)
Time: 11:41:46
(UTC+00:00)

A-11 Canister half - Pass Details

Date: 02 August 2021
Orbit: 1515 x 1685 km, 47.2° (Epoch: 27 September)

Event Time Altitude Azimuth Distance (km) Brightness Sun altitude
Rises 14:08:42 0° 231° (SW) 4,666 11.7 55.1°
Reaches altitude 10° 14:11:49 10° 236° (SW) 3,694 11.3 54.5°
Maximum altitude 14:20:47 53° 310° (NW) 1,858 12.5 52.5°
Drops below altitude 10° 14:30:03 10° 25° (NNE) 3,798 11.2 50.5°
Sets 14:33:20 0° 30° (NNE) 4,806 11.6 49.8°
